When you browse on this site, cookies collect data to enhance your experience and personalize the content and advertising you see.
Visit our Privacy Policy to learn more. By continuing to use the site, you agree to this use of cookies and data.
  • In Portugal
  • List of Countries
  • For 7 days
  • Water Temperature
  • Satellite Maps
  • Weather Map
  • Weather Widgets
  • user-avatar
    Login

    Hourly Weather Abomey

    Today, 18 December, Tuesday

    Time Temperature Precipitation Wind Pressure Humidity
    00:00 +28°C° 0 mm 1 mps 740 mmHg 76%
    01:00 +28°C° 0 mm 1 mps 740 mmHg 77%
    02:00 +28°C° 0 mm 1 mps 739 mmHg 78%
    03:00 +27°C° 0 mm 1 mps 739 mmHg 79%
    04:00 +27°C° 0 mm 1 mps 739 mmHg 80%
    05:00 +25°C° 0 mm 0 mps 739 mmHg 82%
    06:00 +24°C° 0 mm 0 mps 739 mmHg 83%
    07:00 +27°C° 0 mm 0 mps 740 mmHg 72%
    08:00 +29°C° 0 mm 0 mps 740 mmHg 61%
    09:00 +32°C° 0 mm 0 mps 740 mmHg 51%
    10:00 +35°C° 0 mm 1 mps 740 mmHg 43%
    11:00 +36°C° 0 mm 1 mps 740 mmHg 35%
    12:00 +39°C° 0 mm 2 mps 740 mmHg 27%
    13:00 +39°C° 0 mm 2 mps 739 mmHg 26%
    14:00 +39°C° 0 mm 2 mps 739 mmHg 24%
    15:00 +40°C° 0 mm 2 mps 738 mmHg 22%
    16:00 +38°C° 0 mm 2 mps 738 mmHg 28%
    17:00 +36°C° 0 mm 3 mps 738 mmHg 34%
    18:00 +34°C° 0 mm 3 mps 738 mmHg 40%
    19:00 +33°C° 0 mm 3 mps 739 mmHg 50%
    20:00 +30°C° 0 mm 3 mps 739 mmHg 59%
    21:00 +29°C° 0 mm 3 mps 740 mmHg 69%
    22:00 +29°C° 0 mm 3 mps 740 mmHg 71%
    23:00 +28°C° 0 mm 2 mps 740 mmHg 73%

    Tomorrow, 19 December, Wednesday

    Time Temperature Precipitation Wind Pressure Humidity
    00:00 +28°C° 0 mm 2 mps 740 mmHg 75%
    01:00 +28°C° 0 mm 2 mps 739 mmHg 77%
    02:00 +27°C° 0 mm 1 mps 739 mmHg 80%
    03:00 +27°C° 0 mm 1 mps 739 mmHg 82%
    04:00 +27°C° 0 mm 1 mps 739 mmHg 84%
    05:00 +26°C° 0 mm 1 mps 739 mmHg 85%
    06:00 +26°C° 0 mm 1 mps 740 mmHg 87%
    07:00 +28°C° 0 mm 1 mps 740 mmHg 77%
    08:00 +30°C° 0 mm 1 mps 741 mmHg 67%
    09:00 +32°C° 0 mm 1 mps 741 mmHg 58%
    10:00 +34°C° 0 mm 1 mps 741 mmHg 48%
    11:00 +37°C° 0 mm 1 mps 740 mmHg 39%
    12:00 +37°C° 0 mm 0 mps 740 mmHg 29%
    13:00 +40°C° 0 mm 1 mps 739 mmHg 28%
    14:00 +40°C° 0 mm 1 mps 739 mmHg 27%
    15:00 +39°C° 0 mm 1 mps 738 mmHg 26%
    16:00 +38°C° 0 mm 2 mps 738 mmHg 31%
    17:00 +36°C° 0 mm 2 mps 738 mmHg 36%
    18:00 +35°C° 0 mm 3 mps 738 mmHg 41%
    19:00 +33°C° 0 mm 3 mps 739 mmHg 50%
    20:00 +31°C° 0 mm 3 mps 739 mmHg 59%
    21:00 +29°C° 0 mm 3 mps 740 mmHg 68%
    22:00 +29°C° 0 mm 3 mps 740 mmHg 71%
    23:00 +29°C° 0 mm 3 mps 740 mmHg 73%

    Day after tomorrow, 20 December, Thursday

    Time Temperature Precipitation Wind Pressure Humidity
    00:00 +28°C° 0 mm 2 mps 740 mmHg 76%
    01:00 +28°C° 0 mm 2 mps 739 mmHg 78%
    02:00 +27°C° 0 mm 2 mps 739 mmHg 80%
    03:00 +27°C° 0 mm 1 mps 739 mmHg 82%
    04:00 +27°C° 0 mm 1 mps 739 mmHg 84%
    05:00 +26°C° 0 mm 1 mps 739 mmHg 85%
    06:00 +26°C° 0 mm 1 mps 739 mmHg 87%
    07:00 +28°C° 0 mm 1 mps 740 mmHg 78%
    08:00 +30°C° 0 mm 2 mps 740 mmHg 68%
    09:00 +31°C° 0 mm 2 mps 741 mmHg 59%
    10:00 +34°C° 0 mm 1 mps 741 mmHg 49%
    11:00 +37°C° 0 mm 1 mps 740 mmHg 39%
    12:00 +38°C° 0 mm 0 mps 740 mmHg 29%
    13:00 +37°C° 0 mm 0 mps 739 mmHg 27%
    14:00 +40°C° 0 mm 1 mps 738 mmHg 26%
    15:00 +40°C° 0 mm 1 mps 737 mmHg 24%
    16:00 +37°C° 0 mm 1 mps 738 mmHg 29%
    17:00 +37°C° 0 mm 2 mps 738 mmHg 34%
    18:00 +35°C° 0 mm 2 mps 738 mmHg 39%
    19:00 +34°C° 0 mm 3 mps 738 mmHg 49%
    20:00 +31°C° 0 mm 3 mps 739 mmHg 59%
    21:00 +30°C° 0 mm 3 mps 740 mmHg 69%
    22:00 +29°C° 0 mm 3 mps 739 mmHg 73%
    23:00 +28°C° 0 mm 2 mps 739 mmHg 78%

    21 December, Friday

    Time Temperature Precipitation Wind Pressure Humidity
    00:00 +28°C° 0 mm 2 mps 739 mmHg 82%
    01:00 +28°C° 0 mm 2 mps 739 mmHg 83%
    02:00 +27°C° 0 mm 2 mps 738 mmHg 84%
    03:00 +27°C° 0 mm 1 mps 738 mmHg 85%
    04:00 +27°C° 0 mm 1 mps 738 mmHg 86%
    05:00 +26°C° 0 mm 1 mps 739 mmHg 88%
    06:00 +26°C° 0 mm 1 mps 739 mmHg 89%
    07:00 +28°C° 0 mm 1 mps 740 mmHg 81%
    08:00 +29°C° 0 mm 1 mps 740 mmHg 72%
    09:00 +31°C° 0 mm 2 mps 741 mmHg 63%
    10:00 +34°C° 0 mm 1 mps 740 mmHg 53%
    11:00 +36°C° 0 mm 1 mps 740 mmHg 43%
    12:00 +37°C° 0 mm 0 mps 739 mmHg 33%
    13:00 +36°C° 0 mm 0 mps 739 mmHg 31%
    14:00 +39°C° 0 mm 1 mps 738 mmHg 29%
    15:00 +39°C° 0 mm 1 mps 737 mmHg 27%
    16:00 +38°C° 0.1 mm 2 mps 737 mmHg 32%
    17:00 +36°C° 0.1 mm 2 mps 737 mmHg 38%
    18:00 +34°C° 0.1 mm 3 mps 737 mmHg 43%
    19:00 +33°C° 0 mm 3 mps 738 mmHg 51%
    20:00 +31°C° 0 mm 3 mps 738 mmHg 60%
    21:00 +29°C° 0 mm 3 mps 739 mmHg 68%
    22:00 +29°C° 0 mm 3 mps 739 mmHg 70%
    23:00 +28°C° 0 mm 3 mps 739 mmHg 73%

    22 December, Saturday

    Time Temperature Precipitation Wind Pressure Humidity
    00:00 +28°C° 0 mm 2 mps 738 mmHg 75%
    01:00 +28°C° 0 mm 2 mps 738 mmHg 77%
    02:00 +27°C° 0 mm 1 mps 738 mmHg 79%
    03:00 +27°C° 0 mm 1 mps 737 mmHg 80%
    04:00 +27°C° 0 mm 1 mps 738 mmHg 82%
    05:00 +26°C° 0 mm 1 mps 738 mmHg 83%
    06:00 +26°C° 0 mm 1 mps 739 mmHg 85%
    07:00 +28°C° 0 mm 1 mps 739 mmHg 76%
    08:00 +30°C° 0 mm 1 mps 740 mmHg 67%
    09:00 +31°C° 0 mm 2 mps 740 mmHg 59%
    10:00 +34°C° 0 mm 1 mps 740 mmHg 50%
    11:00 +36°C° 0 mm 1 mps 739 mmHg 41%
    12:00 +36°C° 0 mm 0 mps 739 mmHg 32%
    13:00 +36°C° 0 mm 0 mps 738 mmHg 31%
    14:00 +39°C° 0 mm 1 mps 737 mmHg 30%
    15:00 +39°C° 0 mm 1 mps 736 mmHg 28%
    16:00 +37°C° 0 mm 2 mps 737 mmHg 32%
    17:00 +36°C° 0 mm 2 mps 737 mmHg 36%
    18:00 +35°C° 0 mm 3 mps 737 mmHg 40%
    19:00 +33°C° 0 mm 3 mps 737 mmHg 48%
    20:00 +31°C° 0 mm 3 mps 738 mmHg 56%
    21:00 +29°C° 0 mm 3 mps 738 mmHg 64%
    22:00 +29°C° 0 mm 3 mps 738 mmHg 67%
    23:00 +28°C° 0 mm 3 mps 738 mmHg 69%

    23 December, Sunday

    Time Temperature Precipitation Wind Pressure Humidity
    00:00 +28°C° 0 mm 2 mps 738 mmHg 72%
    01:00 +27°C° 0 mm 2 mps 738 mmHg 74%
    02:00 +27°C° 0 mm 1 mps 737 mmHg 76%
    03:00 +27°C° 0 mm 1 mps 737 mmHg 79%
    04:00 +27°C° 0 mm 1 mps 737 mmHg 80%
    05:00 +26°C° 0 mm 1 mps 738 mmHg 81%
    06:00 +26°C° 0 mm 1 mps 738 mmHg 82%
    07:00 +28°C° 0 mm 1 mps 739 mmHg 73%
    08:00 +30°C° 0 mm 2 mps 739 mmHg 63%
    09:00 +32°C° 0 mm 2 mps 740 mmHg 53%
    10:00 +35°C° 0 mm 2 mps 739 mmHg 45%
    11:00 +36°C° 0 mm 1 mps 739 mmHg 37%
    12:00 +40°C° 0 mm 1 mps 738 mmHg 29%
    13:00 +39°C° 0 mm 1 mps 738 mmHg 29%
    14:00 +37°C° 0 mm 1 mps 737 mmHg 29%
    15:00 +37°C° 0 mm 1 mps 736 mmHg 30%
    16:00 +36°C° 0 mm 2 mps 737 mmHg 35%
    17:00 +35°C° 0 mm 2 mps 737 mmHg 40%
    18:00 +34°C° 0 mm 3 mps 737 mmHg 44%
    19:00 +31°C° 0 mm 3 mps 737 mmHg 51%
    20:00 +30°C° 0 mm 3 mps 738 mmHg 57%
    21:00 +29°C° 0 mm 3 mps 738 mmHg 64%
    22:00 +29°C° 0 mm 3 mps 738 mmHg 65%
    23:00 +28°C° 0 mm 2 mps 738 mmHg 67%
    Show more